Time,TemperatureF,DewpointF,PressureIn,WindDirection,WindDirectionDegrees,WindSpeedMPH,WindSpeedGustMPH,Humidity,HourlyPrecipIn,Conditions,Clouds,dailyrainin,SoftwareType,DateUTC
2013-06-24 00:02:00,60.0,36.2,29.80,WSW,238,24.0,26.0,41,0.00,,SCT,0.00,VWS V14.01,2013-06-24 07:02:00,
2013-06-24 00:07:00,59.8,36.1,29.80,WSW,250,27.0,29.0,41,0.00,,SCT,0.00,VWS V14.01,2013-06-24 07:07:00,
2013-06-24 00:12:00,59.8,36.7,29.79,WSW,254,21.0,30.0,42,0.00,,SCT,0.00,VWS V14.01,2013-06-24 07:12:00,
2013-06-24 00:17:00,59.8,36.7,29.79,SW,225,19.0,24.0,42,0.00,,SCT,0.00,VWS V14.01,2013-06-24 07:17:00,
2013-06-24 00:23:00,59.8,36.7,29.79,SW,230,24.0,29.0,42,0.00,,SCT,0.00,VWS V14.01,2013-06-24 07:23:00,
2013-06-24 00:28:00,60.0,36.9,29.79,WSW,242,14.0,32.0,42,0.00,,SCT,0.00,VWS V14.01,2013-06-24 07:28:00,
2013-06-24 00:33:00,60.0,36.9,29.78,WSW,249,19.0,27.0,42,0.00,,SCT,0.00,VWS V14.01,2013-06-24 07:33:00,
2013-06-24 00:38:00,60.0,36.9,29.78,WSW,248,21.0,27.0,42,0.00,,SCT,0.00,VWS V14.01,2013-06-24 07:38:00,
2013-06-24 00:43:00,60.0,37.5,29.78,West,267,23.0,31.0,43,0.00,,SCT,0.00,VWS V14.01,2013-06-24 07:43:00,
2013-06-24 00:48:00,60.1,37.5,29.78,SW,225,22.0,25.0,43,0.00,,SCT,0.00,VWS V14.01,2013-06-24 07:48:00,
2013-06-24 00:53:00,60.1,37.5,29.78,WSW,253,19.0,28.0,43,0.00,,SCT,0.00,VWS V14.01,2013-06-24 07:53:00,
2013-06-24 00:58:00,60.1,37.5,29.78,WSW,247,13.0,28.0,43,0.00,,SCT,0.00,VWS V14.01,2013-06-24 07:58:00,
2013-06-24 01:03:00,60.1,37.5,29.78,WSW,244,19.0,26.0,43,0.00,,SCT,0.00,VWS V14.01,2013-06-24 08:03:00,
2013-06-24 01:08:00,60.1,37.5,29.78,WSW,249,24.0,27.0,43,0.00,,SCT,0.00,VWS V14.01,2013-06-24 08:08:00,
2013-06-24 01:13:00,60.0,37.5,29.78,WSW,250,18.0,29.0,43,0.00,,SCT,0.00,VWS V14.01,2013-06-24 08:13:00,
2013-06-24 01:18:00,60.0,37.5,29.78,WSW,252,15.0,28.0,43,0.00,,SCT,0.00,VWS V14.01,2013-06-24 08:18:00,
2013-06-24 01:24:00,60.0,37.5,29.78,WSW,243,18.0,28.0,43,0.00,,SCT,0.00,VWS V14.01,2013-06-24 08:24:00,
2013-06-24 01:29:00,59.8,37.9,29.77,SSW,203,15.0,28.0,44,0.00,,SCT,0.00,VWS V14.01,2013-06-24 08:29:00,
2013-06-24 01:34:00,59.6,37.7,29.77,West,277,16.0,30.0,44,0.00,,SCT,0.00,VWS V14.01,2013-06-24 08:34:00,
2013-06-24 01:39:00,59.3,38.0,29.77,WSW,246,17.0,30.0,45,0.00,,SCT,0.00,VWS V14.01,2013-06-24 08:39:00,
2013-06-24 01:44:00,59.0,37.7,29.77,WSW,249,13.0,30.0,45,0.00,,SCT,0.00,VWS V14.01,2013-06-24 08:44:00,
2013-06-24 01:49:00,58.7,37.4,29.77,SW,225,17.0,24.0,45,0.00,,SCT,0.00,VWS V14.01,2013-06-24 08:49:00,
2013-06-24 01:55:00,58.5,37.8,29.77,WSW,252,23.0,28.0,46,0.00,,SCT,0.00,VWS V14.01,2013-06-24 08:55:00,
2013-06-24 02:00:00,58.3,38.2,29.77,West,271,19.0,28.0,47,0.00,,SCT,0.00,VWS V14.01,2013-06-24 09:00:00,
2013-06-24 02:05:00,58.2,38.1,29.77,SW,225,11.0,23.0,47,0.00,,SCT,0.00,VWS V14.01,2013-06-24 09:05:00,
2013-06-24 02:10:00,58.0,37.9,29.77,WSW,239,12.0,24.0,47,0.00,,SCT,0.00,VWS V14.01,2013-06-24 09:10:00,
2013-06-24 02:15:00,58.0,38.4,29.77,WSW,246,19.0,25.0,48,0.00,,SCT,0.00,VWS V14.01,2013-06-24 09:15:00,
2013-06-24 02:20:00,57.8,38.3,29.77,West,259,14.0,25.0,48,0.00,,SCT,0.00,VWS V14.01,2013-06-24 09:20:00,
2013-06-24 02:25:00,57.7,38.7,29.77,West,271,14.0,25.0,49,0.00,,SCT,0.00,VWS V14.01,2013-06-24 09:25:00,
2013-06-24 02:30:00,57.5,39.0,29.76,SW,217,18.0,21.0,50,0.00,,SCT,0.00,VWS V14.01,2013-06-24 09:30:00,
2013-06-24 02:35:00,57.6,39.1,29.76,WSW,239,15.0,23.0,50,0.00,,SCT,0.00,VWS V14.01,2013-06-24 09:35:00,
2013-06-24 02:40:00,57.6,39.6,29.77,WSW,256,11.0,23.0,51,0.00,,SCT,0.00,VWS V14.01,2013-06-24 09:40:00,
2013-06-24 02:46:00,57.6,39.6,29.77,West,261,23.0,23.0,51,0.00,,SCT,0.00,VWS V14.01,2013-06-24 09:46:00,
2013-06-24 02:51:00,57.6,39.6,29.77,WSW,254,24.0,26.0,51,0.00,,SCT,0.00,VWS V14.01,2013-06-24 09:51:00,
2013-06-24 02:56:00,57.9,39.4,29.77,WSW,250,20.0,27.0,50,0.00,,SCT,0.00,VWS V14.01,2013-06-24 09:56:00,
2013-06-24 03:01:00,58.1,39.1,29.77,SW,234,12.0,25.0,49,0.00,,SCT,0.00,VWS V14.01,2013-06-24 10:01:00,
2013-06-24 03:07:00,58.2,38.6,29.77,WSW,242,18.0,25.0,48,0.00,,SCT,0.00,VWS V14.01,2013-06-24 10:07:00,
2013-06-24 03:12:00,58.3,38.2,29.77,WSW,250,23.0,29.0,47,0.00,,SCT,0.00,VWS V14.01,2013-06-24 10:12:00,
2013-06-24 03:17:00,58.2,38.1,29.77,WSW,243,13.0,23.0,47,0.00,,SCT,0.00,VWS V14.01,2013-06-24 10:17:00,
2013-06-24 03:22:00,58.1,38.0,29.77,WSW,246,15.0,23.0,47,0.00,,SCT,0.00,VWS V14.01,2013-06-24 10:22:00,
2013-06-24 03:27:00,58.0,37.9,29.77,SW,217,14.0,24.0,47,0.00,,SCT,0.00,VWS V14.01,2013-06-24 10:27:00,
2013-06-24 03:32:00,57.9,37.3,29.77,West,261,11.0,20.0,46,0.00,,SCT,0.00,VWS V14.01,2013-06-24 10:32:00,
2013-06-24 03:37:00,57.8,36.6,29.77,WSW,248,15.0,21.0,45,0.00,,SCT,0.00,VWS V14.01,2013-06-24 10:37:00,
2013-06-24 03:42:00,57.6,35.9,29.78,SW,229,18.0,21.0,44,0.00,,SCT,0.00,VWS V14.01,2013-06-24 10:42:00,
2013-06-24 03:47:00,57.5,35.2,29.78,SW,214,8.0,24.0,43,0.00,,SCT,0.00,VWS V14.01,2013-06-24 10:47:00,
2013-06-24 03:52:00,57.4,35.1,29.78,SW,231,16.0,24.0,43,0.00,,SCT,0.00,VWS V14.01,2013-06-24 10:52:00,
2013-06-24 03:57:00,57.2,35.5,29.78,SW,236,16.0,24.0,44,0.00,,SCT,0.00,VWS V14.01,2013-06-24 10:57:00,
2013-06-24 04:03:00,56.9,35.2,29.79,WSW,257,18.0,20.0,44,0.00,,SCT,0.00,VWS V14.01,2013-06-24 11:03:00,
2013-06-24 04:08:00,56.6,35.0,29.79,SW,229,11.0,20.0,44,0.00,,SCT,0.00,VWS V14.01,2013-06-24 11:08:00,
2013-06-24 04:13:00,56.4,34.8,29.79,WSW,242,10.0,20.0,44,0.00,,SCT,0.00,VWS V14.01,2013-06-24 11:13:00,
2013-06-24 04:18:00,56.1,33.9,29.79,West,265,14.0,20.0,43,0.00,,SCT,0.00,VWS V14.01,2013-06-24 11:18:00,
2013-06-24 04:23:00,56.0,35.0,29.80,WSW,250,10.0,20.0,45,0.00,,SCT,0.00,VWS V14.01,2013-06-24 11:23:00,
2013-06-24 04:28:00,55.7,35.8,29.80,WNW,286,15.0,20.0,47,0.00,,SCT,0.00,VWS V14.01,2013-06-24 11:28:00,
2013-06-24 04:33:00,55.3,35.4,29.80,WSW,249,11.0,15.0,47,0.00,,SCT,0.00,VWS V14.01,2013-06-24 11:33:00,
2013-06-24 04:38:00,55.1,33.6,29.80,WSW,248,14.0,18.0,44,0.00,,SCT,0.00,VWS V14.01,2013-06-24 11:38:00,
2013-06-24 04:43:00,55.0,32.3,29.80,WSW,242,12.0,18.0,42,0.00,,SCT,0.00,VWS V14.01,2013-06-24 11:43:00,
2013-06-24 04:49:00,55.1,31.2,29.80,SW,217,14.0,18.0,40,0.00,,SCT,0.00,VWS V14.01,2013-06-24 11:49:00,
2013-06-24 04:54:00,55.2,30.7,29.80,West,281,12.0,18.0,39,0.00,,SCT,0.00,VWS V14.01,2013-06-24 11:54:00,
2013-06-24 04:59:00,55.4,30.9,29.80,WSW,247,11.0,18.0,39,0.00,,SCT,0.00,VWS V14.01,2013-06-24 11:59:00,
2013-06-24 05:04:00,55.5,30.3,29.80,West,271,14.0,22.0,38,0.00,,SCT,0.00,VWS V14.01,2013-06-24 12:04:00,
2013-06-24 05:09:00,55.7,30.5,29.80,WSW,254,7.0,22.0,38,0.00,,SCT,0.00,VWS V14.01,2013-06-24 12:09:00,
2013-06-24 05:14:00,55.7,30.5,29.80,WSW,254,11.0,22.0,38,0.00,,SCT,0.00,VWS V14.01,2013-06-24 12:14:00,
2013-06-24 05:19:00,55.7,29.9,29.80,SW,234,10.0,21.0,37,0.00,,SCT,0.00,VWS V14.01,2013-06-24 12:19:00,
2013-06-24 05:24:00,55.7,30.5,29.81,West,261,14.0,21.0,38,0.00,,SCT,0.00,VWS V14.01,2013-06-24 12:24:00,
2013-06-24 05:29:00,55.7,29.2,29.81,WSW,242,14.0,21.0,36,0.00,,SCT,0.00,VWS V14.01,2013-06-24 12:29:00,
2013-06-24 05:34:00,55.7,29.9,29.81,WSW,253,12.0,19.0,37,0.00,,SCT,0.00,VWS V14.01,2013-06-24 12:34:00,
2013-06-24 05:40:00,55.7,27.8,29.81,West,259,15.0,21.0,34,0.00,,SCT,0.00,VWS V14.01,2013-06-24 12:40:00,
2013-06-24 05:45:00,55.9,28.7,29.81,WSW,245,11.0,13.0,35,0.00,,SCT,0.00,VWS V14.01,2013-06-24 12:45:00,
2013-06-24 05:50:00,56.0,28.8,29.81,WSW,253,13.0,19.0,35,0.00,,SCT,0.00,VWS V14.01,2013-06-24 12:50:00,
2013-06-24 05:55:00,56.0,28.0,29.81,WNW,288,13.0,19.0,34,0.00,,SCT,0.00,VWS V14.01,2013-06-24 12:55:00,
2013-06-24 06:00:00,55.9,28.0,29.81,WSW,257,15.0,19.0,34,0.00,,SCT,0.00,VWS V14.01,2013-06-24 13:00:00,
2013-06-24 06:05:00,56.1,28.1,29.81,WSW,252,6.0,19.0,34,0.00,,SCT,0.00,VWS V14.01,2013-06-24 13:05:00,
2013-06-24 06:10:00,56.1,28.1,29.82,WSW,241,11.0,19.0,34,0.00,,SCT,0.00,VWS V14.01,2013-06-24 13:10:00,
2013-06-24 06:15:00,56.2,26.8,29.82,West,261,11.0,13.0,32,0.00,,SCT,0.00,VWS V14.01,2013-06-24 13:15:00,
2013-06-24 06:20:00,56.3,26.1,29.82,West,272,11.0,22.0,31,0.00,,SCT,0.00,VWS V14.01,2013-06-24 13:20:00,
2013-06-24 06:25:00,56.6,27.1,29.82,SW,229,12.0,22.0,32,0.00,,SCT,0.00,VWS V14.01,2013-06-24 13:25:00,
2013-06-24 06:31:00,56.8,24.9,29.82,WSW,242,15.0,24.0,29,0.00,,SCT,0.00,VWS V14.01,2013-06-24 13:31:00,
2013-06-24 06:36:00,57.0,25.9,29.82,WSW,243,14.0,24.0,30,0.00,,SCT,0.00,VWS V14.01,2013-06-24 13:36:00,
2013-06-24 06:41:00,57.2,26.1,29.83,WSW,249,10.0,24.0,30,0.00,,SCT,0.00,VWS V14.01,2013-06-24 13:41:00,
2013-06-24 06:46:00,57.5,26.3,29.82,West,259,11.0,17.0,30,0.00,,SCT,0.00,VWS V14.01,2013-06-24 13:46:00,
2013-06-24 06:51:00,57.7,27.3,29.83,West,259,8.0,18.0,31,0.00,,SCT,0.00,VWS V14.01,2013-06-24 13:51:00,
2013-06-24 06:56:00,58.1,26.9,29.83,WSW,241,11.0,18.0,30,0.00,,SCT,0.00,VWS V14.01,2013-06-24 13:56:00,
2013-06-24 07:01:00,58.5,25.5,29.83,West,259,10.0,17.0,28,0.00,,SCT,0.00,VWS V14.01,2013-06-24 14:01:00,
2013-06-24 07:06:00,58.9,26.7,29.83,West,269,13.0,19.0,29,0.00,,SCT,0.00,VWS V14.01,2013-06-24 14:06:00,
2013-06-24 07:11:00,59.3,26.2,29.84,SW,232,17.0,19.0,28,0.00,,SCT,0.00,VWS V14.01,2013-06-24 14:11:00,
2013-06-24 07:16:00,59.6,26.5,29.84,WSW,254,5.0,18.0,28,0.00,,SCT,0.00,VWS V14.01,2013-06-24 14:16:00,
2013-06-24 07:21:00,60.0,27.7,29.84,West,259,10.0,18.0,29,0.00,,SCT,0.00,VWS V14.01,2013-06-24 14:21:00,
2013-06-24 07:26:00,60.3,27.1,29.84,WNW,289,9.0,19.0,28,0.00,,SCT,0.00,VWS V14.01,2013-06-24 14:26:00,
2013-06-24 07:31:00,60.4,28.0,29.85,SW,232,19.0,22.0,29,0.00,,SCT,0.00,VWS V14.01,2013-06-24 14:31:00,
2013-06-24 07:36:00,60.5,26.4,29.85,SW,221,14.0,23.0,27,0.00,,SCT,0.00,VWS V14.01,2013-06-24 14:36:00,
2013-06-24 07:41:00,60.4,27.2,29.85,WSW,237,16.0,23.0,28,0.00,,SCT,0.00,VWS V14.01,2013-06-24 14:41:00,
2013-06-24 07:46:00,60.4,26.3,29.85,WSW,240,14.0,17.0,27,0.00,,SCT,0.00,VWS V14.01,2013-06-24 14:46:00,
2013-06-24 07:51:00,60.4,26.3,29.85,West,261,11.0,18.0,27,0.00,,SCT,0.00,VWS V14.01,2013-06-24 14:51:00,
2013-06-24 07:56:00,60.5,27.3,29.85,WSW,248,13.0,21.0,28,0.00,,SCT,0.00,VWS V14.01,2013-06-24 14:56:00,
2013-06-24 08:01:00,60.5,27.3,29.86,WSW,244,8.0,13.0,28,0.00,,SCT,0.00,VWS V14.01,2013-06-24 15:01:00,
2013-06-24 08:06:00,60.7,26.5,29.86,WSW,241,10.0,18.0,27,0.00,,SCT,0.00,VWS V14.01,2013-06-24 15:06:00,
2013-06-24 08:11:00,61.0,25.0,29.86,SW,223,14.0,26.0,25,0.00,,SCT,0.00,VWS V14.01,2013-06-24 15:11:00,
2013-06-24 08:17:00,61.2,26.1,29.86,WSW,238,15.0,20.0,26,0.00,,SCT,0.00,VWS V14.01,2013-06-24 15:17:00,
2013-06-24 08:22:00,61.4,27.1,29.86,WSW,246,15.0,20.0,27,0.00,,SCT,0.00,VWS V14.01,2013-06-24 15:22:00,
2013-06-24 08:27:00,62.0,26.8,29.87,WSW,239,17.0,20.0,26,0.00,,SCT,0.00,VWS V14.01,2013-06-24 15:27:00,
2013-06-24 08:32:00,62.5,26.2,29.87,WSW,252,19.0,19.0,25,0.00,,SCT,0.00,VWS V14.01,2013-06-24 15:32:00,
2013-06-24 08:37:00,63.0,25.7,29.87,SW,232,12.0,20.0,24,0.00,,SCT,0.00,VWS V14.01,2013-06-24 15:37:00,
2013-06-24 08:43:00,63.3,26.9,29.88,SW,225,16.0,23.0,25,0.00,,SCT,0.00,VWS V14.01,2013-06-24 15:43:00,
2013-06-24 08:48:00,63.6,26.2,29.88,WSW,248,10.0,20.0,24,0.00,,SCT,0.00,VWS V14.01,2013-06-24 15:48:00,
2013-06-24 08:53:00,63.8,26.3,29.88,SSW,209,15.0,25.0,24,0.00,,SCT,0.00,VWS V14.01,2013-06-24 15:53:00,
2013-06-24 08:58:00,63.7,27.2,29.89,WSW,241,14.0,25.0,25,0.00,,SCT,0.00,VWS V14.01,2013-06-24 15:58:00,
2013-06-24 09:03:00,63.5,27.1,29.89,SW,236,7.0,22.0,25,0.00,,SCT,0.00,VWS V14.01,2013-06-24 16:03:00,
2013-06-24 09:08:00,63.7,28.2,29.89,SSW,207,16.0,22.0,26,0.00,,SCT,0.00,VWS V14.01,2013-06-24 16:08:00,
2013-06-24 09:13:00,64.0,28.5,29.89,SW,215,14.0,22.0,26,0.00,,SCT,0.00,VWS V14.01,2013-06-24 16:13:00,
2013-06-24 09:19:00,64.3,29.6,29.89,WSW,247,13.0,20.0,27,0.00,,SCT,0.00,VWS V14.01,2013-06-24 16:19:00,
2013-06-24 09:24:00,64.6,29.9,29.89,SW,223,12.0,20.0,27,0.00,,SCT,0.00,VWS V14.01,2013-06-24 16:24:00,
2013-06-24 09:29:00,64.9,30.1,29.89,SW,224,10.0,20.0,27,0.00,,SCT,0.00,VWS V14.01,2013-06-24 16:29:00,
2013-06-24 09:34:00,65.2,30.4,29.89,SW,233,7.0,18.0,27,0.00,,SCT,0.00,VWS V14.01,2013-06-24 16:34:00,
2013-06-24 09:39:00,65.5,31.6,29.90,SW,233,12.0,19.0,28,0.00,,SCT,0.00,VWS V14.01,2013-06-24 16:39:00,
2013-06-24 09:44:00,65.6,34.2,29.89,West,262,11.0,22.0,31,0.00,,SCT,0.00,VWS V14.01,2013-06-24 16:44:00,
2013-06-24 09:49:00,66.0,34.5,29.89,SW,229,17.0,19.0,31,0.00,,SCT,0.00,VWS V14.01,2013-06-24 16:49:00,
2013-06-24 09:54:00,66.4,34.0,29.89,SW,232,18.0,19.0,30,0.00,,SCT,0.00,VWS V14.01,2013-06-24 16:54:00,
2013-06-24 09:59:00,67.0,33.7,29.89,WSW,247,8.0,19.0,29,0.00,,SCT,0.00,VWS V14.01,2013-06-24 16:59:00,
2013-06-24 10:05:00,67.2,33.0,29.89,WSW,242,14.0,22.0,28,0.00,,SCT,0.00,VWS V14.01,2013-06-24 17:05:00,
2013-06-24 10:10:00,67.3,34.0,29.89,SW,222,14.0,22.0,29,0.00,,SCT,0.00,VWS V14.01,2013-06-24 17:10:00,
2013-06-24 10:15:00,67.4,33.2,29.89,WSW,250,18.0,18.0,28,0.00,,SCT,0.00,VWS V14.01,2013-06-24 17:15:00,
2013-06-24 10:20:00,67.2,32.1,29.90,SSW,212,12.0,24.0,27,0.00,,SCT,0.00,VWS V14.01,2013-06-24 17:20:00,
2013-06-24 10:25:00,67.3,34.8,29.90,SW,229,11.0,24.0,30,0.00,,SCT,0.00,VWS V14.01,2013-06-24 17:25:00,
2013-06-24 10:30:00,67.7,34.3,29.90,WSW,239,13.0,18.0,29,0.00,,SCT,0.00,VWS V14.01,2013-06-24 17:30:00,
2013-06-24 10:35:00,68.1,35.5,29.90,SW,223,13.0,20.0,30,0.00,,SCT,0.00,VWS V14.01,2013-06-24 17:35:00,
2013-06-24 10:40:00,68.3,34.8,29.90,SW,219,10.0,20.0,29,0.00,,SCT,0.00,VWS V14.01,2013-06-24 17:40:00,
2013-06-24 10:45:00,68.7,36.0,29.90,WSW,243,23.0,23.0,30,0.00,,SCT,0.00,VWS V14.01,2013-06-24 17:45:00,
2013-06-24 10:50:00,69.0,35.5,29.90,SW,232,12.0,23.0,29,0.00,,SCT,0.00,VWS V14.01,2013-06-24 17:50:00,
2013-06-24 10:55:00,69.2,35.6,29.91,WSW,251,10.0,23.0,29,0.00,,SCT,0.00,VWS V14.01,2013-06-24 17:55:00,
2013-06-24 11:01:00,69.2,35.6,29.91,WSW,246,13.0,23.0,29,0.00,,SCT,0.00,VWS V14.01,2013-06-24 18:01:00,
2013-06-24 11:06:00,69.2,34.7,29.91,WSW,256,8.0,24.0,28,0.00,,SCT,0.00,VWS V14.01,2013-06-24 18:06:00,
2013-06-24 11:11:00,69.1,38.8,29.91,WSW,244,18.0,24.0,33,0.00,,SCT,0.00,VWS V14.01,2013-06-24 18:11:00,
2013-06-24 11:16:00,69.0,38.7,29.91,WSW,241,13.0,19.0,33,0.00,,SCT,0.00,VWS V14.01,2013-06-24 18:16:00,
2013-06-24 11:21:00,68.9,39.4,29.90,SW,219,13.0,20.0,34,0.00,,SCT,0.00,VWS V14.01,2013-06-24 18:21:00,
2013-06-24 11:26:00,69.2,39.7,29.90,SW,217,16.0,20.0,34,0.00,,SCT,0.00,VWS V14.01,2013-06-24 18:26:00,
2013-06-24 11:31:00,69.7,40.1,29.90,SW,231,17.0,20.0,34,0.00,,SCT,0.00,VWS V14.01,2013-06-24 18:31:00,
2013-06-24 11:36:00,69.8,40.2,29.90,West,273,19.0,22.0,34,0.00,,SCT,0.00,VWS V14.01,2013-06-24 18:36:00,
2013-06-24 11:41:00,69.8,40.9,29.91,WSW,250,12.0,22.0,35,0.00,,SCT,0.00,VWS V14.01,2013-06-24 18:41:00,
2013-06-24 11:46:00,70.2,42.0,29.90,SW,227,14.0,22.0,36,0.00,,SCT,0.00,VWS V14.01,2013-06-24 18:46:00,
2013-06-24 11:51:00,70.3,41.4,29.90,WSW,242,11.0,25.0,35,0.00,,SCT,0.00,VWS V14.01,2013-06-24 18:51:00,
2013-06-24 11:56:00,70.5,43.0,29.90,WSW,239,13.0,25.0,37,0.00,,SCT,0.00,VWS V14.01,2013-06-24 18:56:00,
2013-06-24 12:01:00,70.3,43.5,29.90,WSW,243,15.0,17.0,38,0.00,,SCT,0.00,VWS V14.01,2013-06-24 19:01:00,
2013-06-24 12:07:00,70.1,43.3,29.90,West,259,8.0,21.0,38,0.00,,SCT,0.00,VWS V14.01,2013-06-24 19:07:00,
2013-06-24 12:12:00,70.0,43.9,29.90,West,271,19.0,22.0,39,0.00,,SCT,0.00,VWS V14.01,2013-06-24 19:12:00,
2013-06-24 12:17:00,69.6,43.6,29.89,WSW,253,18.0,21.0,39,0.00,,SCT,0.00,VWS V14.01,2013-06-24 19:17:00,
2013-06-24 12:22:00,69.3,44.0,29.89,West,261,13.0,24.0,40,0.00,,SCT,0.00,VWS V14.01,2013-06-24 19:22:00,
2013-06-24 12:27:00,69.4,44.1,29.89,WSW,251,8.0,24.0,40,0.00,,SCT,0.00,VWS V14.01,2013-06-24 19:27:00,
2013-06-24 12:32:00,69.6,44.2,29.89,West,259,15.0,20.0,40,0.00,,SCT,0.00,VWS V14.01,2013-06-24 19:32:00,
2013-06-24 12:37:00,69.9,41.8,29.89,West,264,14.0,25.0,36,0.00,,SCT,0.00,VWS V14.01,2013-06-24 19:37:00,
2013-06-24 12:42:00,69.8,43.1,29.89,WSW,249,14.0,25.0,38,0.00,,SCT,0.00,VWS V14.01,2013-06-24 19:42:00,
2013-06-24 12:47:00,69.8,43.1,29.89,WSW,242,14.0,23.0,38,0.00,,SCT,0.00,VWS V14.01,2013-06-24 19:47:00,
2013-06-24 12:52:00,69.9,43.2,29.89,WSW,242,21.0,27.0,38,0.00,,SCT,0.00,VWS V14.01,2013-06-24 19:52:00,
2013-06-24 12:57:00,70.0,43.2,29.89,SW,219,13.0,27.0,38,0.00,,SCT,0.00,VWS V14.01,2013-06-24 19:57:00,
2013-06-24 13:03:00,70.3,42.8,29.89,WSW,257,13.0,24.0,37,0.00,,SCT,0.00,VWS V14.01,2013-06-24 20:03:00,
2013-06-24 13:08:00,70.4,42.9,29.89,SW,234,21.0,25.0,37,0.00,,SCT,0.00,VWS V14.01,2013-06-24 20:08:00,
2013-06-24 13:13:00,70.2,42.0,29.89,WSW,245,17.0,26.0,36,0.00,,SCT,0.00,VWS V14.01,2013-06-24 20:13:00,
2013-06-24 13:18:00,69.8,43.1,29.89,SW,230,18.0,23.0,38,0.00,,SCT,0.00,VWS V14.01,2013-06-24 20:18:00,
2013-06-24 13:23:00,69.8,42.4,29.89,West,278,9.0,26.0,37,0.00,,SCT,0.00,VWS V14.01,2013-06-24 20:23:00,
2013-06-24 13:28:00,70.2,42.7,29.89,SW,226,13.0,28.0,37,0.00,,SCT,0.00,VWS V14.01,2013-06-24 20:28:00,
2013-06-24 13:33:00,70.1,42.7,29.89,SW,230,15.0,30.0,37,0.00,,SCT,0.00,VWS V14.01,2013-06-24 20:33:00,
2013-06-24 13:38:00,70.2,42.7,29.90,SW,233,17.0,30.0,37,0.00,,SCT,0.00,VWS V14.01,2013-06-24 20:38:00,
2013-06-24 13:43:00,70.3,42.8,29.89,WSW,238,18.0,30.0,37,0.00,,SCT,0.00,VWS V14.01,2013-06-24 20:43:00,
2013-06-24 13:48:00,70.4,43.6,29.89,WSW,256,20.0,26.0,38,0.00,,SCT,0.00,VWS V14.01,2013-06-24 20:48:00,
2013-06-24 13:53:00,70.3,43.5,29.89,West,259,17.0,27.0,38,0.00,,SCT,0.00,VWS V14.01,2013-06-24 20:53:00,
2013-06-24 13:58:00,70.7,44.5,29.89,SW,236,20.0,30.0,39,0.00,,SCT,0.00,VWS V14.01,2013-06-24 20:58:00,
2013-06-24 14:03:00,70.9,44.0,29.89,WSW,248,20.0,24.0,38,0.00,,SCT,0.00,VWS V14.01,2013-06-24 21:03:00,
2013-06-24 14:08:00,70.8,44.0,29.89,SSW,213,18.0,27.0,38,0.00,,SCT,0.00,VWS V14.01,2013-06-24 21:08:00,
2013-06-24 14:13:00,71.2,45.0,29.89,SW,234,16.0,27.0,39,0.00,,SCT,0.00,VWS V14.01,2013-06-24 21:13:00,
2013-06-24 14:18:00,71.6,46.0,29.89,SW,234,20.0,28.0,40,0.00,,SCT,0.00,VWS V14.01,2013-06-24 21:18:00,
2013-06-24 14:24:00,72.0,46.4,29.89,SW,226,13.0,28.0,40,0.00,,SCT,0.00,VWS V14.01,2013-06-24 21:24:00,
2013-06-24 14:29:00,72.2,47.2,29.89,WSW,254,15.0,32.0,41,0.00,,SCT,0.00,VWS V14.01,2013-06-24 21:29:00,
2013-06-24 14:34:00,72.1,47.8,29.89,WSW,246,22.0,28.0,42,0.00,,SCT,0.00,VWS V14.01,2013-06-24 21:34:00,
2013-06-24 14:39:00,71.4,48.4,29.89,WSW,255,15.0,30.0,44,0.00,,SCT,0.00,VWS V14.01,2013-06-24 21:39:00,
2013-06-24 14:44:00,70.5,48.2,29.89,SW,227,22.0,30.0,45,0.00,,SCT,0.00,VWS V14.01,2013-06-24 21:44:00,
2013-06-24 14:49:00,70.2,48.5,29.88,SW,234,17.0,31.0,46,0.00,,SCT,0.00,VWS V14.01,2013-06-24 21:49:00,
2013-06-24 14:54:00,69.9,48.8,29.88,West,259,13.0,31.0,47,0.00,,SCT,0.00,VWS V14.01,2013-06-24 21:54:00,
2013-06-24 14:59:00,69.4,48.9,29.88,WSW,250,23.0,31.0,48,0.00,,SCT,0.00,VWS V14.01,2013-06-24 21:59:00,
2013-06-24 15:04:00,69.0,49.1,29.89,WSW,250,18.0,28.0,49,0.00,,SCT,0.00,VWS V14.01,2013-06-24 22:04:00,
2013-06-24 15:10:00,68.4,49.1,29.88,WSW,247,15.0,31.0,50,0.00,,SCT,0.00,VWS V14.01,2013-06-24 22:10:00,
2013-06-24 15:15:00,68.2,49.4,29.88,WSW,242,20.0,23.0,51,0.00,,SCT,0.00,VWS V14.01,2013-06-24 22:15:00,
2013-06-24 15:20:00,68.5,49.7,29.88,SW,217,23.0,29.0,51,0.00,,SCT,0.00,VWS V14.01,2013-06-24 22:20:00,
2013-06-24 15:25:00,68.3,49.5,29.88,WSW,240,19.0,31.0,51,0.00,,SCT,0.00,VWS V14.01,2013-06-24 22:25:00,
2013-06-24 15:30:00,67.2,49.5,29.88,WSW,242,20.0,22.0,53,0.00,,SCT,0.00,VWS V14.01,2013-06-24 22:30:00,
2013-06-24 15:35:00,66.8,49.6,29.88,West,264,13.0,26.0,54,0.00,,SCT,0.00,VWS V14.01,2013-06-24 22:35:00,
2013-06-24 15:40:00,66.5,49.4,29.88,WSW,242,20.0,27.0,54,0.00,,SCT,0.00,VWS V14.01,2013-06-24 22:40:00,
2013-06-24 15:45:00,65.9,49.8,29.88,SW,219,17.0,19.0,56,0.00,,SCT,0.00,VWS V14.01,2013-06-24 22:45:00,
2013-06-24 15:50:00,65.7,50.1,29.88,WSW,238,15.0,25.0,57,0.00,,SCT,0.00,VWS V14.01,2013-06-24 22:50:00,
2013-06-24 15:55:00,65.2,49.6,29.88,WSW,255,14.0,28.0,57,0.00,,SCT,0.00,VWS V14.01,2013-06-24 22:55:00,
2013-06-24 16:00:00,64.7,50.1,29.88,West,265,14.0,23.0,59,0.00,,SCT,0.00,VWS V14.01,2013-06-24 23:00:00,
2013-06-24 16:05:00,64.5,50.3,29.87,SW,234,19.0,33.0,60,0.00,,SCT,0.00,VWS V14.01,2013-06-24 23:05:00,
2013-06-24 16:11:00,64.5,49.9,29.87,SW,236,22.0,33.0,59,0.00,,SCT,0.00,VWS V14.01,2013-06-24 23:11:00,
2013-06-24 16:16:00,64.4,50.2,29.87,West,271,22.0,23.0,60,0.00,,SCT,0.00,VWS V14.01,2013-06-24 23:16:00,
2013-06-24 16:21:00,63.9,50.2,29.87,WSW,255,22.0,28.0,61,0.00,,SCT,0.00,VWS V14.01,2013-06-24 23:21:00,
2013-06-24 16:26:00,63.5,50.3,29.87,WSW,242,14.0,28.0,62,0.00,,SCT,0.00,VWS V14.01,2013-06-24 23:26:00,
2013-06-24 16:31:00,63.3,50.5,29.87,SW,218,11.0,26.0,63,0.00,,SCT,0.00,VWS V14.01,2013-06-24 23:31:00,
2013-06-24 16:36:00,63.3,50.5,29.87,WSW,244,13.0,31.0,63,0.00,,SCT,0.00,VWS V14.01,2013-06-24 23:36:00,
2013-06-24 16:41:00,63.6,50.8,29.87,WSW,252,17.0,31.0,63,0.00,,SCT,0.00,VWS V14.01,2013-06-24 23:41:00,
2013-06-24 16:46:00,63.9,51.1,29.87,WSW,243,21.0,26.0,63,0.00,,SCT,0.00,VWS V14.01,2013-06-24 23:46:00,
2013-06-24 16:51:00,64.1,50.8,29.87,WSW,246,15.0,27.0,62,0.00,,SCT,0.00,VWS V14.01,2013-06-24 23:51:00,
2013-06-24 16:56:00,63.9,50.6,29.87,West,269,18.0,27.0,62,0.00,,SCT,0.00,VWS V14.01,2013-06-24 23:56:00,
2013-06-24 17:01:00,63.4,50.2,29.87,West,269,15.0,23.0,62,0.00,,SCT,0.00,VWS V14.01,2013-06-25 00:01:00,
2013-06-24 17:08:00,63.0,50.2,29.87,SW,217,16.0,28.0,63,0.00,,SCT,0.00,VWS V14.01,2013-06-25 00:08:00,
2013-06-24 17:13:00,62.6,50.3,29.87,SW,233,14.0,28.0,64,0.00,,SCT,0.00,VWS V14.01,2013-06-25 00:13:00,
2013-06-24 17:18:00,62.2,50.7,29.87,SW,219,10.0,26.0,66,0.00,,SCT,0.00,VWS V14.01,2013-06-25 00:18:00,
2013-06-24 17:23:00,61.9,50.8,29.87,WSW,249,24.0,27.0,67,0.00,,SCT,0.00,VWS V14.01,2013-06-25 00:23:00,
2013-06-24 17:28:00,61.6,51.0,29.86,West,264,20.0,27.0,68,0.00,,SCT,0.00,VWS V14.01,2013-06-25 00:28:00,
2013-06-24 17:33:00,61.4,50.4,29.86,WSW,246,15.0,28.0,67,0.00,,SCT,0.00,VWS V14.01,2013-06-25 00:33:00,
2013-06-24 17:38:00,61.6,50.1,29.86,WSW,238,13.0,28.0,66,0.00,,SCT,0.00,VWS V14.01,2013-06-25 00:38:00,
2013-06-24 17:44:00,61.8,50.3,29.87,West,278,13.0,28.0,66,0.00,,SCT,0.00,VWS V14.01,2013-06-25 00:44:00,
2013-06-24 17:49:00,61.9,50.4,29.86,West,259,21.0,24.0,66,0.00,,SCT,0.00,VWS V14.01,2013-06-25 00:49:00,
2013-06-24 17:54:00,61.8,50.7,29.87,SW,229,19.0,24.0,67,0.00,,SCT,0.00,VWS V14.01,2013-06-25 00:54:00,
2013-06-24 17:59:00,61.6,50.5,29.86,WNW,296,23.0,25.0,67,0.00,,SCT,0.00,VWS V14.01,2013-06-25 00:59:00,
2013-06-24 18:04:00,61.4,50.4,29.87,WSW,251,19.0,25.0,67,0.00,,SCT,0.00,VWS V14.01,2013-06-25 01:04:00,
2013-06-24 18:09:00,61.3,50.7,29.87,WSW,246,23.0,26.0,68,0.00,,SCT,0.00,VWS V14.01,2013-06-25 01:09:00,
2013-06-24 18:15:00,61.2,51.0,29.87,West,280,22.0,27.0,69,0.00,,SCT,0.00,VWS V14.01,2013-06-25 01:15:00,
2013-06-24 18:19:00,60.9,51.1,29.87,WSW,255,15.0,25.0,70,0.00,,SCT,0.00,VWS V14.01,2013-06-25 01:19:00,
2013-06-24 18:25:00,60.9,50.7,29.87,WSW,242,21.0,26.0,69,0.00,,SCT,0.00,VWS V14.01,2013-06-25 01:25:00,
2013-06-24 18:29:00,61.1,50.1,29.87,WSW,258,22.0,26.0,67,0.00,,SCT,0.00,VWS V14.01,2013-06-25 01:29:00,
2013-06-24 18:34:00,61.3,49.9,29.87,WSW,250,19.0,31.0,66,0.00,,SCT,0.00,VWS V14.01,2013-06-25 01:34:00,
2013-06-24 18:40:00,61.4,49.5,29.87,WSW,250,22.0,31.0,65,0.00,,SCT,0.00,VWS V14.01,2013-06-25 01:40:00,
2013-06-24 18:45:00,61.6,49.7,29.87,SW,232,19.0,21.0,65,0.00,,SCT,0.00,VWS V14.01,2013-06-25 01:45:00,
2013-06-24 18:50:00,61.6,49.3,29.87,SW,234,17.0,28.0,64,0.00,,SCT,0.00,VWS V14.01,2013-06-25 01:50:00,
2013-06-24 18:55:00,61.3,49.0,29.88,West,261,23.0,29.0,64,0.00,,SCT,0.00,VWS V14.01,2013-06-25 01:55:00,
2013-06-24 19:00:00,60.9,49.1,29.88,WSW,239,19.0,23.0,65,0.00,,SCT,0.00,VWS V14.01,2013-06-25 02:00:00,
2013-06-24 19:05:00,60.7,49.7,29.88,West,261,28.0,35.0,67,0.00,,SCT,0.00,VWS V14.01,2013-06-25 02:05:00,
2013-06-24 19:10:00,60.4,49.8,29.88,WSW,250,27.0,35.0,68,0.00,,SCT,0.00,VWS V14.01,2013-06-25 02:10:00,
2013-06-24 19:15:00,60.1,49.5,29.88,WSW,246,23.0,27.0,68,0.00,,SCT,0.00,VWS V14.01,2013-06-25 02:15:00,
2013-06-24 19:20:00,59.8,49.6,29.88,SW,222,20.0,30.0,69,0.00,,SCT,0.00,VWS V14.01,2013-06-25 02:20:00,
2013-06-24 19:25:00,59.6,49.8,29.87,SSW,202,17.0,30.0,70,0.00,,SCT,0.00,VWS V14.01,2013-06-25 02:25:00,
2013-06-24 19:30:00,59.3,49.5,29.88,WSW,246,24.0,26.0,70,0.00,,SCT,0.00,VWS V14.01,2013-06-25 02:30:00,
2013-06-24 19:35:00,59.1,49.7,29.87,WSW,254,25.0,28.0,71,0.00,,SCT,0.00,VWS V14.01,2013-06-25 02:35:00,
2013-06-24 19:41:00,58.8,49.4,29.87,West,265,20.0,31.0,71,0.00,,SCT,0.00,VWS V14.01,2013-06-25 02:41:00,
2013-06-24 19:46:00,58.5,49.5,29.87,West,260,18.0,27.0,72,0.00,,SCT,0.00,VWS V14.01,2013-06-25 02:46:00,
2013-06-24 19:51:00,58.2,49.6,29.88,WSW,253,19.0,33.0,73,0.00,,SCT,0.00,VWS V14.01,2013-06-25 02:51:00,
2013-06-24 19:56:00,57.9,49.7,29.87,WSW,255,28.0,33.0,74,0.00,,SCT,0.00,VWS V14.01,2013-06-25 02:56:00,
2013-06-24 20:01:00,57.6,49.8,29.87,WSW,247,25.0,27.0,75,0.00,,SCT,0.00,VWS V14.01,2013-06-25 03:01:00,
2013-06-24 20:06:00,57.2,49.7,29.87,West,263,17.0,30.0,76,0.00,,SCT,0.00,VWS V14.01,2013-06-25 03:06:00,
2013-06-24 20:11:00,57.0,49.9,29.86,WSW,257,33.0,33.0,77,0.00,,SCT,0.00,VWS V14.01,2013-06-25 03:11:00,
2013-06-24 20:16:00,56.7,49.9,29.87,SW,225,22.0,25.0,78,0.00,,SCT,0.00,VWS V14.01,2013-06-25 03:16:00,
2013-06-24 20:21:00,56.4,50.0,29.87,West,273,23.0,30.0,79,0.00,,SCT,0.00,VWS V14.01,2013-06-25 03:21:00,
2013-06-24 20:26:00,56.2,50.1,29.87,West,261,32.0,32.0,80,0.00,,SCT,0.00,VWS V14.01,2013-06-25 03:26:00,
2013-06-24 20:32:00,55.9,50.2,29.87,WSW,248,19.0,31.0,81,0.00,,SCT,0.00,VWS V14.01,2013-06-25 03:32:00,
2013-06-24 20:37:00,55.7,50.0,29.87,WSW,252,12.0,31.0,81,0.00,,SCT,0.00,VWS V14.01,2013-06-25 03:37:00,
2013-06-24 20:42:00,55.5,49.8,29.87,West,271,15.0,31.0,81,0.00,,SCT,0.00,VWS V14.01,2013-06-25 03:42:00,
2013-06-24 20:47:00,55.4,49.7,29.87,WSW,246,23.0,27.0,81,0.00,,SCT,0.00,VWS V14.01,2013-06-25 03:47:00,
2013-06-24 20:52:00,55.4,49.7,29.87,WSW,246,22.0,27.0,81,0.00,,SCT,0.00,VWS V14.01,2013-06-25 03:52:00,
2013-06-24 20:57:00,55.4,49.7,29.87,West,267,23.0,35.0,81,0.00,,SCT,0.00,VWS V14.01,2013-06-25 03:57:00,
2013-06-24 21:01:00,55.5,49.4,29.87,WSW,250,21.0,21.0,80,0.00,,SCT,0.00,VWS V14.01,2013-06-25 04:01:00,
2013-06-24 21:06:00,55.5,49.1,29.87,WSW,237,19.0,28.0,79,0.00,,SCT,0.00,VWS V14.01,2013-06-25 04:06:00,
2013-06-24 21:11:00,55.6,48.9,29.87,WSW,244,24.0,32.0,78,0.00,,SCT,0.00,VWS V14.01,2013-06-25 04:11:00,
2013-06-24 21:16:00,55.7,49.0,29.87,West,259,24.0,29.0,78,0.00,,SCT,0.00,VWS V14.01,2013-06-25 04:16:00,
2013-06-24 21:21:00,55.9,48.8,29.87,West,260,22.0,29.0,77,0.00,,SCT,0.00,VWS V14.01,2013-06-25 04:21:00,
2013-06-24 21:26:00,55.9,48.5,29.88,WSW,240,23.0,29.0,76,0.00,,SCT,0.00,VWS V14.01,2013-06-25 04:26:00,
2013-06-24 21:31:00,56.0,48.2,29.88,SW,229,17.0,23.0,75,0.00,,SCT,0.00,VWS V14.01,2013-06-25 04:31:00,
2013-06-24 21:36:00,56.1,48.3,29.88,WSW,238,17.0,27.0,75,0.00,,SCT,0.00,VWS V14.01,2013-06-25 04:36:00,
2013-06-24 21:41:00,56.2,48.4,29.89,SW,214,18.0,31.0,75,0.00,,SCT,0.00,VWS V14.01,2013-06-25 04:41:00,
2013-06-24 21:46:00,56.3,48.8,29.89,WSW,251,17.0,28.0,76,0.00,,SCT,0.00,VWS V14.01,2013-06-25 04:46:00,
2013-06-24 21:51:00,56.3,48.8,29.90,WSW,248,18.0,28.0,76,0.00,,SCT,0.00,VWS V14.01,2013-06-25 04:51:00,
2013-06-24 21:56:00,56.4,49.3,29.90,WSW,240,19.0,29.0,77,0.00,,SCT,0.00,VWS V14.01,2013-06-25 04:56:00,
2013-06-24 22:01:00,56.6,49.1,29.90,West,262,19.0,23.0,76,0.00,,SCT,0.00,VWS V14.01,2013-06-25 05:01:00,
2013-06-24 22:06:00,56.8,49.3,29.90,SW,217,18.0,24.0,76,0.00,,SCT,0.00,VWS V14.01,2013-06-25 05:06:00,
2013-06-24 22:11:00,56.9,49.1,29.90,WSW,252,19.0,27.0,75,0.00,,SCT,0.00,VWS V14.01,2013-06-25 05:11:00,
2013-06-24 22:16:00,56.9,48.3,29.90,West,272,16.0,26.0,73,0.00,,SCT,0.00,VWS V14.01,2013-06-25 05:16:00,
2013-06-24 22:21:00,56.9,48.3,29.90,SSW,211,20.0,29.0,73,0.00,,SCT,0.00,VWS V14.01,2013-06-25 05:21:00,
2013-06-24 22:26:00,56.8,47.9,29.90,WSW,254,22.0,29.0,72,0.00,,SCT,0.00,VWS V14.01,2013-06-25 05:26:00,
2013-06-24 22:31:00,56.6,48.1,29.90,WSW,254,20.0,23.0,73,0.00,,SCT,0.00,VWS V14.01,2013-06-25 05:31:00,
2013-06-24 22:36:00,56.6,48.1,29.90,WSW,249,21.0,28.0,73,0.00,,SCT,0.00,VWS V14.01,2013-06-25 05:36:00,
2013-06-24 22:41:00,56.5,48.3,29.91,WSW,240,13.0,28.0,74,0.00,,SCT,0.00,VWS V14.01,2013-06-25 05:41:00,
2013-06-24 22:46:00,56.4,47.9,29.90,WSW,238,12.0,21.0,73,0.00,,SCT,0.00,VWS V14.01,2013-06-25 05:46:00,
2013-06-24 22:51:00,56.4,47.5,29.91,WSW,243,19.0,25.0,72,0.00,,SCT,0.00,VWS V14.01,2013-06-25 05:51:00,
2013-06-24 22:56:00,56.3,47.0,29.91,WSW,238,15.0,25.0,71,0.00,,SCT,0.00,VWS V14.01,2013-06-25 05:56:00,
2013-06-24 23:01:00,56.2,46.9,29.91,WSW,243,21.0,22.0,71,0.00,,SCT,0.00,VWS V14.01,2013-06-25 06:01:00,
2013-06-24 23:06:00,56.1,46.8,29.91,WSW,253,20.0,23.0,71,0.00,,SCT,0.00,VWS V14.01,2013-06-25 06:06:00,
2013-06-24 23:11:00,56.0,46.7,29.92,WSW,244,13.0,23.0,71,0.00,,SCT,0.00,VWS V14.01,2013-06-25 06:11:00,
2013-06-24 23:16:00,56.0,46.7,29.92,WSW,249,18.0,23.0,71,0.00,,SCT,0.00,VWS V14.01,2013-06-25 06:16:00,
2013-06-24 23:21:00,55.9,46.7,29.92,WSW,241,19.0,24.0,71,0.00,,SCT,0.00,VWS V14.01,2013-06-25 06:21:00,
2013-06-24 23:26:00,55.9,46.7,29.92,SW,227,14.0,24.0,71,0.00,,SCT,0.00,VWS V14.01,2013-06-25 06:26:00,
2013-06-24 23:31:00,55.8,46.5,29.92,West,265,12.0,21.0,71,0.00,,SCT,0.00,VWS V14.01,2013-06-25 06:31:00,
2013-06-24 23:36:00,55.8,46.5,29.92,WSW,241,22.0,24.0,71,0.00,,SCT,0.00,VWS V14.01,2013-06-25 06:36:00,
2013-06-24 23:41:00,55.7,46.5,29.92,WSW,251,12.0,25.0,71,0.00,,SCT,0.00,VWS V14.01,2013-06-25 06:41:00,
2013-06-24 23:46:00,55.7,46.8,29.92,WSW,238,13.0,21.0,72,0.00,,SCT,0.00,VWS V14.01,2013-06-25 06:46:00,
2013-06-24 23:51:00,55.7,46.8,29.92,WSW,246,14.0,24.0,72,0.00,,SCT,0.00,VWS V14.01,2013-06-25 06:51:00,
2013-06-24 23:56:00,55.6,46.7,29.92,WSW,242,19.0,24.0,72,0.00,,SCT,0.00,VWS V14.01,2013-06-25 06:56:00,